TIANWANG 1B (TW-1B)
1 40927U 15051C   19132.39111021  .00011108  00000-0  17687-3 0  9991
2 40927  97.1408 178.0609 0009255 150.4774 332.9070 15.53389171204220
TIANWANG 1A (TW-1A)
1 40928U 15051D   19132.54439505  .00003200  00000-0  80682-4 0  9999
2 40928  97.1490 164.6703 0010283 199.9485 290.7016 15.40544961203459
LAPAN A2
1 40931U 15052B   19131.05198734  .00000709  00000-0  96159-5 0  9993
2 40931   5.9990 332.1573 0013925 329.9103  30.0307 14.76606245195540
LQSAT
1 40958U 15057A   19131.79692543  .00000001  00000-0  78277-5 0  9991
2 40958  97.9007 202.0113 0018246   7.7163 352.4322 14.73076511193227
CHUBUSAT 2
1 41338U 16012B   19132.09765325  .00000404  00000-0  24824-4 0  9994
2 41338  31.0041  23.6808 0013644  91.1623 269.0576 15.00137188177269
CHUBUSAT 3
1 41339U 16012C   19132.13808401  .00000308  00000-0  17221-4 0  9999
2 41339  31.0108  21.5674 0013387  98.5055 261.7099 15.00313353177265
OUFTI-1
1 41458U 16025C   19132.17622182  .00003657  00000-0  18780-3 0  9999
2 41458  98.1013 217.1178 0168202 123.0418 238.7092 15.05695460166938
E-STAR-2
1 41459U 16025D   19132.44972294  .00002983  00000-0  15534-3 0  9997
2 41459  98.0993 217.0861 0168774 123.4066 238.3462 15.05340633166947
AAUSAT 4
1 41460U 16025E   19132.47139124  .00002678  00000-0  13700-3 0  9993
2 41460  98.0941 218.2603 0159531 116.2246 245.5536 15.07173764167067
NUSAT 1
1 41557U 16033B   19132.49954833  .00001801  00000-0  70306-4 0  9996
2 41557  97.4173 220.2189 0015479  72.1397 288.1529 15.27118768164411
BEESAT 4
1 41619U 16040W   19131.86958322 +.00001808 +00000-0 +79691-4 0  9993
2 41619 097.3704 194.7933 0012278 149.4213 210.7742 15.23017397148108
PRATHAM
1 41783U 16059A   19131.91441932 +.00000055 +00000-0 +19806-4 0  9990
2 41783 098.0705 192.3237 0034560 141.1356 219.2341 14.62988930140029
ALSAT 1N
1 41789U 16059G   19132.41363103  .00000075  00000-0  23250-4 0  9995
2 41789  98.0719 194.7231 0029305 129.2871 231.0942 14.64236290140194
NAYIF 1
1 42017U 17008BX  19131.84877957  .00001861  00000-0  76506-4 0  9994
2 42017  97.4054 199.3291 0004818 313.5767  46.5071 15.25412907124154
MAX VALIER SAT
1 42778U 17036P   19131.85611142 +.00001231 +00000-0 +56937-4 0  9999
2 42778 097.3576 190.3497 0012371 005.9665 354.1717 15.21940155104483
